Time,TemperatureF,DewpointF,PressureIn,WindDirection,WindDirectionDegrees,WindSpeedMPH,WindSpeedGustMPH,Humidity,HourlyPrecipIn,Conditions,Clouds,dailyrainin,SoftwareType,DateUTC
2013-01-04 00:03:00,61.0,58.0,30.07,North,9,3.0,6.0,91,0.00,,,0.05,,2013-01-04 05:03:00,
2013-01-04 00:12:00,61.0,58.0,30.07,North,9,3.0,6.0,91,0.00,,,0.05,,2013-01-04 05:12:00,
2013-01-04 00:22:00,61.0,58.0,30.07,NE,51,4.0,7.0,91,0.00,,,0.05,,2013-01-04 05:22:00,
2013-01-04 00:33:00,61.0,59.0,30.06,ENE,66,4.0,5.0,92,0.00,,,0.05,,2013-01-04 05:33:00,
2013-01-04 00:42:00,61.0,59.0,30.06,ENE,66,4.0,5.0,92,0.00,,,0.05,,2013-01-04 05:42:00,
2013-01-04 00:53:00,61.0,59.0,30.07,NE,36,1.0,2.0,92,0.00,,,0.05,,2013-01-04 05:53:00,
2013-01-04 01:02:00,61.0,59.0,30.07,ENE,67,3.0,7.0,92,0.00,,,0.05,,2013-01-04 06:02:00,
2013-01-04 01:12:00,61.0,59.0,30.07,ENE,67,3.0,7.0,92,0.00,,,0.05,,2013-01-04 06:12:00,
2013-01-04 01:22:00,61.0,59.0,30.06,ENE,61,3.0,5.0,92,0.00,,,0.05,,2013-01-04 06:22:00,
2013-01-04 01:33:00,60.0,58.0,30.06,NE,51,3.0,5.0,92,0.00,,,0.05,,2013-01-04 06:33:00,
2013-01-04 01:42:00,60.0,58.0,30.06,NE,51,3.0,5.0,92,0.00,,,0.05,,2013-01-04 06:42:00,
2013-01-04 01:53:00,60.0,58.0,30.07,North,5,3.0,4.0,92,0.00,,,0.05,,2013-01-04 06:53:00,
2013-01-04 02:02:00,60.0,58.0,30.07,NNE,14,5.0,7.0,92,0.00,,,0.05,,2013-01-04 07:02:00,
2013-01-04 02:12:00,60.0,58.0,30.07,NNE,14,5.0,7.0,92,0.00,,,0.05,,2013-01-04 07:12:00,
2013-01-04 02:22:00,60.0,58.0,30.07,NE,37,2.0,4.0,92,0.00,,,0.05,,2013-01-04 07:22:00,
2013-01-04 02:32:00,60.0,58.0,30.07,NNE,18,2.0,4.0,92,0.00,,,0.05,,2013-01-04 07:32:00,
2013-01-04 02:42:00,60.0,58.0,30.07,NNE,18,2.0,4.0,92,0.00,,,0.05,,2013-01-04 07:42:00,
2013-01-04 02:52:00,60.0,58.0,30.07,North,9,4.0,5.0,92,0.00,,,0.05,,2013-01-04 07:52:00,
2013-01-04 03:02:00,60.0,58.0,30.07,NNE,22,4.0,5.0,92,0.00,,,0.05,,2013-01-04 08:02:00,
2013-01-04 03:12:00,60.0,58.0,30.07,NNE,22,4.0,5.0,92,0.00,,,0.05,,2013-01-04 08:12:00,
2013-01-04 03:23:00,60.0,58.0,30.07,NNE,20,2.0,4.0,92,0.00,,,0.05,,2013-01-04 08:23:00,
2013-01-04 03:32:00,60.0,58.0,30.07,NNE,32,4.0,5.0,92,0.00,,,0.08,,2013-01-04 08:32:00,
2013-01-04 03:42:00,60.0,58.0,30.07,NNE,32,4.0,5.0,92,0.00,,,0.08,,2013-01-04 08:42:00,
2013-01-04 03:53:00,60.0,58.0,30.07,East,81,5.0,9.0,92,0.00,,,0.10,,2013-01-04 08:53:00,
2013-01-04 04:02:00,60.0,58.0,30.08,NNE,17,3.0,4.0,92,0.00,,,0.10,,2013-01-04 09:02:00,